TAM3443 SBCT-SBGL

Flight info

Callsign TAM3443
Flight time 1h 2m
Altitude 37000
Route EDVEB UM548 KOXAG UM400 KOLBI
Aircraft A320/M-SDE3FGHIRWY/LB1

Departure

Time 2026-04-29 02:56
Airport Curitiba-Afonso Pena International Airport (SBCT)

Arrival

Time 2026-04-29 03:58
Airport Rio Galeão – Tom Jobim International Airport (SBGL)
Time Latitude Longitude Altitude Speed Heading
2026-04-29 02:03 -25.53595 -49.17184 2998 ft 0 kts 209°
2026-04-29 02:39 -25.53594 -49.17184 2997 ft 1 kts 209°
2026-04-29 02:39 -25.53582 -49.17174 2997 ft 2 kts 230°
2026-04-29 02:39 -25.53573 -49.17160 2997 ft 2 kts 245°
2026-04-29 02:40 -25.53569 -49.17146 2997 ft 2 kts 261°
2026-04-29 02:40 -25.53569 -49.17129 2997 ft 2 kts 278°
2026-04-29 02:40 -25.53573 -49.17112 2997 ft 2 kts 296°
2026-04-29 02:40 -25.53581 -49.17098 2997 ft 2 kts 313°
2026-04-29 02:41 -25.53589 -49.17090 2997 ft 0 kts 320°
2026-04-29 02:43 -25.53567 -49.17114 2997 ft 3 kts 316°
2026-04-29 02:43 -25.53563 -49.17118 2997 ft 1 kts 315°
2026-04-29 02:44 -25.53562 -49.17119 2997 ft 0 kts 315°
2026-04-29 02:47 -25.53561 -49.17120 2997 ft 0 kts 315°
2026-04-29 02:47 -25.53555 -49.17127 2997 ft 1 kts 314°
2026-04-29 02:47 -25.53541 -49.17142 2997 ft 3 kts 315°
2026-04-29 02:48 -25.53519 -49.17163 2997 ft 5 kts 323°
2026-04-29 02:48 -25.53488 -49.17191 2997 ft 6 kts 317°
2026-04-29 02:48 -25.53459 -49.17223 2997 ft 5 kts 315°
2026-04-29 02:48 -25.53450 -49.17233 2997 ft 0 kts 315°
2026-04-29 02:49 -25.53445 -49.17239 2997 ft 2 kts 314°
2026-04-29 02:49 -25.53428 -49.17253 2997 ft 3 kts 335°
2026-04-29 02:49 -25.53412 -49.17255 2997 ft 0 kts 21°
2026-04-29 02:50 -25.53401 -49.17249 2997 ft 2 kts 27°
2026-04-29 02:50 -25.53380 -49.17237 2997 ft 4 kts 23°
2026-04-29 02:50 -25.53349 -49.17240 2997 ft 5 kts 333°
2026-04-29 02:50 -25.53315 -49.17274 2997 ft 8 kts 314°
2026-04-29 02:51 -25.53262 -49.17332 2997 ft 11 kts 318°
2026-04-29 02:51 -25.53202 -49.17402 2997 ft 14 kts 312°
2026-04-29 02:51 -25.53132 -49.17480 2997 ft 16 kts 314°
2026-04-29 02:51 -25.53052 -49.17570 2997 ft 17 kts 314°
2026-04-29 02:52 -25.52992 -49.17654 2997 ft 10 kts 287°
2026-04-29 02:52 -25.52987 -49.17713 2997 ft 9 kts 270°
2026-04-29 02:52 -25.52985 -49.17800 2997 ft 10 kts 273°
2026-04-29 02:52 -25.52971 -49.17868 2997 ft 9 kts 302°
2026-04-29 02:53 -25.52922 -49.17925 2997 ft 9 kts 318°
2026-04-29 02:53 -25.52886 -49.17961 2997 ft 8 kts 317°
2026-04-29 02:53 -25.52813 -49.17988 2997 ft 14 kts 358°
2026-04-29 02:53 -25.52708 -49.17988 2997 ft 14 kts 358°
2026-04-29 02:54 -25.52647 -49.17992 2997 ft 7 kts 357°
2026-04-29 02:54 -25.52576 -49.17995 2997 ft 10 kts 358°
2026-04-29 02:54 -25.52531 -49.17963 2997 ft 9 kts 78°
2026-04-29 02:54 -25.52548 -49.17912 2997 ft 5 kts 131°
2026-04-29 02:55 -25.52550 -49.17910 2997 ft 1 kts 133°
2026-04-29 02:55 -25.52713 -49.17724 2997 ft 73 kts 133°
2026-04-29 02:55 -25.53230 -49.17145 2998 ft 139 kts 134°
2026-04-29 02:55 -25.54011 -49.16264 3233 ft 172 kts 132°
2026-04-29 02:56 -25.54839 -49.15253 3756 ft 181 kts 118°
2026-04-29 02:56 -25.55102 -49.14034 4024 ft 159 kts 75°
2026-04-29 02:56 -25.54536 -49.13032 4097 ft 159 kts 39°
2026-04-29 02:56 -25.53702 -49.12190 4540 ft 170 kts 46°
2026-04-29 02:57 -25.52990 -49.11122 5094 ft 180 kts 55°
2026-04-29 02:57 -25.52401 -49.09833 5541 ft 199 kts 62°
2026-04-29 02:57 -25.51911 -49.08335 5996 ft 218 kts 67°
2026-04-29 02:57 -25.51469 -49.06610 6388 ft 243 kts 71°
2026-04-29 02:58 -25.51067 -49.04724 6904 ft 262 kts 72°
2026-04-29 02:58 -25.50679 -49.02705 7419 ft 280 kts 73°
2026-04-29 02:58 -25.50288 -49.00525 8019 ft 295 kts 75°
2026-04-29 02:58 -25.49897 -48.98292 8744 ft 303 kts 75°
2026-04-29 02:59 -25.49501 -48.95972 9490 ft 310 kts 75°
2026-04-29 02:59 -25.49100 -48.93621 10180 ft 317 kts 75°
2026-04-29 02:59 -25.48684 -48.91185 10764 ft 328 kts 75°
2026-04-29 02:59 -25.48262 -48.88699 11326 ft 338 kts 75°
2026-04-29 03:00 -25.47828 -48.86136 12038 ft 342 kts 75°
2026-04-29 03:00 -25.47386 -48.83530 12746 ft 346 kts 75°
2026-04-29 03:00 -25.46938 -48.80906 13396 ft 350 kts 75°
2026-04-29 03:00 -25.46486 -48.78250 14040 ft 354 kts 75°
2026-04-29 03:01 -25.46035 -48.75609 14682 ft 357 kts 75°
2026-04-29 03:01 -25.45570 -48.72890 15325 ft 361 kts 75°
2026-04-29 03:01 -25.45098 -48.70140 15979 ft 365 kts 75°
2026-04-29 03:01 -25.44622 -48.67371 16591 ft 368 kts 75°
2026-04-29 03:02 -25.44145 -48.64594 17182 ft 372 kts 75°
2026-04-29 03:02 -25.43664 -48.61791 17750 ft 375 kts 75°
2026-04-29 03:02 -25.43175 -48.58958 18331 ft 378 kts 75°
2026-04-29 03:02 -25.42680 -48.56084 18870 ft 382 kts 75°
2026-04-29 03:03 -25.42183 -48.53210 19410 ft 386 kts 75°
2026-04-29 03:03 -25.41679 -48.50299 19957 ft 389 kts 75°
2026-04-29 03:03 -25.41170 -48.47356 20468 ft 393 kts 75°
2026-04-29 03:03 -25.40652 -48.44372 21001 ft 396 kts 75°
2026-04-29 03:04 -25.40134 -48.41387 21510 ft 400 kts 75°
2026-04-29 03:04 -25.39608 -48.38354 22013 ft 404 kts 74°
2026-04-29 03:04 -25.39074 -48.35294 22493 ft 407 kts 75°
2026-04-29 03:04 -25.38542 -48.32241 22982 ft 411 kts 74°
2026-04-29 03:05 -25.37998 -48.29123 23481 ft 414 kts 74°
2026-04-29 03:05 -25.37456 -48.26016 23964 ft 417 kts 74°
2026-04-29 03:05 -25.36906 -48.22877 24446 ft 420 kts 73°
2026-04-29 03:05 -25.36347 -48.19679 24944 ft 423 kts 73°
2026-04-29 03:06 -25.35784 -48.16466 25431 ft 426 kts 73°
2026-04-29 03:06 -25.35223 -48.13274 25879 ft 429 kts 73°
2026-04-29 03:06 -25.34650 -48.10016 26297 ft 434 kts 73°
2026-04-29 03:06 -25.34070 -48.06718 26743 ft 437 kts 73°
2026-04-29 03:07 -25.33495 -48.03453 27197 ft 439 kts 73°
2026-04-29 03:07 -25.32909 -48.00143 27623 ft 442 kts 73°
2026-04-29 03:07 -25.32314 -47.96784 28036 ft 445 kts 73°
2026-04-29 03:07 -25.31721 -47.93453 28430 ft 448 kts 73°
2026-04-29 03:08 -25.31111 -47.90040 28789 ft 451 kts 73°
2026-04-29 03:08 -25.30508 -47.86673 29149 ft 454 kts 73°
2026-04-29 03:08 -25.29896 -47.83248 29498 ft 457 kts 73°
2026-04-29 03:08 -25.29271 -47.79776 29838 ft 460 kts 73°
2026-04-29 03:09 -25.28649 -47.76317 30150 ft 463 kts 73°
2026-04-29 03:09 -25.28025 -47.72850 30456 ft 466 kts 73°
2026-04-29 03:09 -25.27391 -47.69327 30781 ft 468 kts 73°
2026-04-29 03:09 -25.26755 -47.65810 31072 ft 471 kts 73°
2026-04-29 03:10 -25.26111 -47.62247 31365 ft 473 kts 73°
2026-04-29 03:10 -25.25464 -47.58670 31645 ft 475 kts 73°
2026-04-29 03:10 -25.24819 -47.55114 31986 ft 476 kts 73°
2026-04-29 03:10 -25.24177 -47.51564 32383 ft 475 kts 73°
2026-04-29 03:11 -25.23528 -47.47993 32755 ft 474 kts 73°
2026-04-29 03:11 -25.22879 -47.44426 33115 ft 474 kts 73°
2026-04-29 03:11 -25.22234 -47.40902 33479 ft 474 kts 73°
2026-04-29 03:11 -25.21583 -47.37341 33858 ft 474 kts 73°
2026-04-29 03:12 -25.20926 -47.33752 34276 ft 472 kts 73°
2026-04-29 03:12 -25.20285 -47.30261 34652 ft 471 kts 73°
2026-04-29 03:12 -25.19637 -47.26732 35001 ft 470 kts 73°
2026-04-29 03:12 -25.18979 -47.23161 35312 ft 470 kts 73°
2026-04-29 03:13 -25.18341 -47.19687 35626 ft 469 kts 73°
2026-04-29 03:13 -25.17684 -47.16122 35920 ft 469 kts 73°
2026-04-29 03:13 -25.17035 -47.12602 36164 ft 469 kts 73°
2026-04-29 03:13 -25.16382 -47.09079 36370 ft 471 kts 73°
2026-04-29 03:14 -25.15732 -47.05566 36570 ft 472 kts 73°
2026-04-29 03:14 -25.15026 -47.02049 36774 ft 471 kts 70°
2026-04-29 03:14 -25.14119 -46.98557 36975 ft 468 kts 66°
2026-04-29 03:15 -25.11700 -46.91901 37028 ft 470 kts 58°
2026-04-29 03:15 -25.08783 -46.85404 37024 ft 477 kts 57°
2026-04-29 03:16 -25.05845 -46.78860 37023 ft 477 kts 57°
2026-04-29 03:16 -25.02934 -46.72323 37025 ft 477 kts 57°
2026-04-29 03:17 -25.00017 -46.65780 37021 ft 477 kts 57°
2026-04-29 03:17 -24.97080 -46.59212 37026 ft 477 kts 57°
2026-04-29 03:18 -24.94156 -46.52675 37023 ft 477 kts 58°
2026-04-29 03:18 -24.91232 -46.46149 37022 ft 477 kts 57°
2026-04-29 03:19 -24.88301 -46.39611 37023 ft 476 kts 58°
2026-04-29 03:19 -24.85385 -46.33127 37019 ft 476 kts 57°
2026-04-29 03:20 -24.82445 -46.26586 37022 ft 476 kts 57°
2026-04-29 03:20 -24.79519 -46.20090 37021 ft 476 kts 57°
2026-04-29 03:21 -24.76579 -46.13574 37026 ft 476 kts 57°
2026-04-29 03:21 -24.73638 -46.07063 37021 ft 475 kts 58°
2026-04-29 03:22 -24.70714 -46.00602 37018 ft 475 kts 58°
2026-04-29 03:22 -24.69133 -45.97109 37020 ft 476 kts 58°
2026-04-29 03:23 -24.66138 -45.90499 37017 ft 475 kts 57°
2026-04-29 03:23 -24.63210 -45.84055 37013 ft 475 kts 58°
2026-04-29 03:24 -24.60283 -45.77616 37011 ft 474 kts 58°
2026-04-29 03:24 -24.57342 -45.71153 37009 ft 474 kts 58°
2026-04-29 03:25 -24.54427 -45.64761 37008 ft 474 kts 58°
2026-04-29 03:25 -24.51475 -45.58294 37010 ft 474 kts 58°
2026-04-29 03:26 -24.48554 -45.51905 37005 ft 473 kts 58°
2026-04-29 03:26 -24.45622 -45.45502 37005 ft 473 kts 58°
2026-04-29 03:27 -24.42662 -45.39044 37005 ft 473 kts 58°
2026-04-29 03:27 -24.39747 -45.32695 36996 ft 473 kts 58°
2026-04-29 03:28 -24.36800 -45.26285 36998 ft 472 kts 58°
2026-04-29 03:28 -24.33870 -45.19918 36996 ft 473 kts 58°
2026-04-29 03:29 -24.30903 -45.13482 36996 ft 472 kts 58°
2026-04-29 03:29 -24.27941 -45.07066 36993 ft 472 kts 58°
2026-04-29 03:30 -24.24984 -45.00665 36992 ft 472 kts 58°
2026-04-29 03:30 -24.22026 -44.94273 36993 ft 472 kts 58°
2026-04-29 03:31 -24.17595 -44.84710 36503 ft 469 kts 58°
2026-04-29 03:31 -24.16137 -44.81564 36146 ft 465 kts 58°
2026-04-29 03:31 -24.14667 -44.78422 35716 ft 460 kts 56°
2026-04-29 03:32 -24.13030 -44.75468 35217 ft 453 kts 50°
2026-04-29 03:32 -24.11119 -44.72739 34628 ft 449 kts 43°
2026-04-29 03:32 -24.08992 -44.70303 34024 ft 443 kts 37°
2026-04-29 03:32 -24.06659 -44.68147 33471 ft 438 kts 30°
2026-04-29 03:33 -24.04143 -44.66276 32913 ft 434 kts 24°
2026-04-29 03:33 -24.01543 -44.64637 32379 ft 432 kts 23°
2026-04-29 03:33 -23.98918 -44.63034 32017 ft 427 kts 22°
2026-04-29 03:33 -23.96337 -44.61460 31631 ft 424 kts 22°
2026-04-29 03:34 -23.93788 -44.59902 31196 ft 421 kts 23°
2026-04-29 03:34 -23.91250 -44.58345 30737 ft 418 kts 23°
2026-04-29 03:34 -23.88726 -44.56792 30329 ft 413 kts 23°
2026-04-29 03:34 -23.86223 -44.55252 29888 ft 410 kts 23°
2026-04-29 03:35 -23.83747 -44.53727 29472 ft 406 kts 23°
2026-04-29 03:35 -23.81283 -44.52208 29020 ft 403 kts 23°
2026-04-29 03:35 -23.78872 -44.50722 28590 ft 399 kts 23°
2026-04-29 03:35 -23.76451 -44.49231 28160 ft 395 kts 23°
2026-04-29 03:36 -23.74079 -44.47769 27762 ft 390 kts 23°
2026-04-29 03:36 -23.71739 -44.46330 27362 ft 386 kts 23°
2026-04-29 03:36 -23.69418 -44.44900 26954 ft 382 kts 23°
2026-04-29 03:36 -23.67112 -44.43483 26524 ft 378 kts 23°
2026-04-29 03:37 -23.64837 -44.42085 26084 ft 375 kts 23°
2026-04-29 03:37 -23.62547 -44.40678 25652 ft 372 kts 23°
2026-04-29 03:37 -23.60310 -44.39304 25228 ft 369 kts 23°
2026-04-29 03:37 -23.58094 -44.37944 24802 ft 367 kts 23°
2026-04-29 03:38 -23.55863 -44.36575 24390 ft 363 kts 23°
2026-04-29 03:38 -23.53669 -44.35229 23971 ft 361 kts 23°
2026-04-29 03:38 -23.51514 -44.33907 23552 ft 358 kts 23°
2026-04-29 03:38 -23.49338 -44.32574 23158 ft 354 kts 23°
2026-04-29 03:39 -23.47218 -44.31276 22769 ft 351 kts 23°
2026-04-29 03:39 -23.45081 -44.29965 22356 ft 348 kts 23°
2026-04-29 03:39 -23.42996 -44.28690 21948 ft 346 kts 23°
2026-04-29 03:39 -23.40898 -44.27405 21562 ft 342 kts 24°
2026-04-29 03:40 -23.38835 -44.26144 21192 ft 339 kts 24°
2026-04-29 03:40 -23.36793 -44.24893 20830 ft 335 kts 24°
2026-04-29 03:40 -23.34768 -44.23656 20473 ft 331 kts 24°
2026-04-29 03:40 -23.32772 -44.22436 20101 ft 328 kts 24°
2026-04-29 03:41 -23.30769 -44.21212 19737 ft 325 kts 24°
2026-04-29 03:41 -23.28819 -44.20021 19377 ft 322 kts 24°
2026-04-29 03:41 -23.26861 -44.18826 19007 ft 319 kts 24°
2026-04-29 03:41 -23.24945 -44.17656 18621 ft 317 kts 24°
2026-04-29 03:42 -23.23015 -44.16479 18238 ft 315 kts 25°
2026-04-29 03:42 -23.21114 -44.15319 17852 ft 313 kts 25°
2026-04-29 03:42 -23.19231 -44.14171 17495 ft 311 kts 25°
2026-04-29 03:42 -23.17345 -44.13020 17130 ft 308 kts 25°
2026-04-29 03:43 -23.15502 -44.11898 16753 ft 307 kts 25°
2026-04-29 03:43 -23.13627 -44.10755 16391 ft 305 kts 25°
2026-04-29 03:43 -23.11785 -44.09635 16012 ft 304 kts 25°
2026-04-29 03:43 -23.09957 -44.08521 15654 ft 302 kts 26°
2026-04-29 03:44 -23.08132 -44.07410 15277 ft 300 kts 26°
2026-04-29 03:44 -23.06309 -44.06299 14932 ft 298 kts 26°
2026-04-29 03:44 -23.04490 -44.05191 14571 ft 296 kts 26°
2026-04-29 03:44 -23.02697 -44.04100 14218 ft 295 kts 26°
2026-04-29 03:45 -23.00913 -44.03016 13866 ft 293 kts 26°
2026-04-29 03:45 -22.99160 -44.01950 13505 ft 291 kts 26°
2026-04-29 03:45 -22.97393 -44.00875 13156 ft 289 kts 26°
2026-04-29 03:45 -22.95642 -43.99811 12795 ft 287 kts 26°
2026-04-29 03:46 -22.93931 -43.98700 12468 ft 286 kts 35°
2026-04-29 03:46 -22.92519 -43.97178 12131 ft 288 kts 51°
2026-04-29 03:46 -22.91511 -43.95306 11802 ft 287 kts 61°
2026-04-29 03:46 -22.90660 -43.93374 11466 ft 284 kts 63°
2026-04-29 03:47 -22.89828 -43.91439 11146 ft 281 kts 62°
2026-04-29 03:47 -22.89002 -43.89537 10785 ft 280 kts 62°
2026-04-29 03:47 -22.88191 -43.87691 10454 ft 279 kts 62°
2026-04-29 03:47 -22.87345 -43.85780 10117 ft 277 kts 62°
2026-04-29 03:48 -22.86525 -43.83932 9983 ft 267 kts 62°
2026-04-29 03:48 -22.85720 -43.82122 9677 ft 264 kts 62°
2026-04-29 03:48 -22.84925 -43.80345 9354 ft 262 kts 62°
2026-04-29 03:48 -22.84136 -43.78579 9073 ft 259 kts 62°
2026-04-29 03:49 -22.83367 -43.76860 9011 ft 247 kts 62°
2026-04-29 03:49 -22.82624 -43.75197 9009 ft 246 kts 62°
2026-04-29 03:49 -22.81870 -43.73514 9007 ft 246 kts 62°
2026-04-29 03:49 -22.81179 -43.71844 8997 ft 246 kts 68°
2026-04-29 03:50 -22.80664 -43.70050 8778 ft 250 kts 73°
2026-04-29 03:50 -22.80240 -43.68228 8423 ft 250 kts 74°
2026-04-29 03:50 -22.79828 -43.66400 8122 ft 248 kts 74°
2026-04-29 03:50 -22.79418 -43.64600 7826 ft 247 kts 74°
2026-04-29 03:51 -22.79002 -43.62794 7538 ft 245 kts 74°
2026-04-29 03:51 -22.78592 -43.61026 7252 ft 243 kts 74°
2026-04-29 03:51 -22.78176 -43.59244 6958 ft 241 kts 74°
2026-04-29 03:51 -22.77772 -43.57517 6632 ft 242 kts 74°
2026-04-29 03:52 -22.77307 -43.55747 6289 ft 242 kts 68°
2026-04-29 03:52 -22.76693 -43.54090 5964 ft 242 kts 65°
2026-04-29 03:52 -22.76029 -43.52421 5627 ft 242 kts 65°
2026-04-29 03:52 -22.75363 -43.50758 5294 ft 242 kts 65°
2026-04-29 03:53 -22.74700 -43.49095 4960 ft 241 kts 66°
2026-04-29 03:53 -22.74050 -43.47457 4626 ft 241 kts 66°
2026-04-29 03:53 -22.73387 -43.45784 4257 ft 242 kts 66°
2026-04-29 03:53 -22.72735 -43.44140 3892 ft 243 kts 66°
2026-04-29 03:54 -22.72078 -43.42483 3524 ft 244 kts 66°
2026-04-29 03:54 -22.71536 -43.40785 3144 ft 245 kts 84°
2026-04-29 03:54 -22.71870 -43.39073 2961 ft 234 kts 123°
2026-04-29 03:54 -22.72906 -43.37882 2964 ft 212 kts 136°
2026-04-29 03:55 -22.73893 -43.36871 2862 ft 189 kts 133°
2026-04-29 03:55 -22.74718 -43.35911 2510 ft 183 kts 129°
2026-04-29 03:55 -22.75488 -43.34907 2189 ft 175 kts 126°
2026-04-29 03:55 -22.76143 -43.33988 1962 ft 163 kts 125°
2026-04-29 03:56 -22.77332 -43.32229 1506 ft 142 kts 124°
2026-04-29 03:56 -22.77911 -43.31393 1261 ft 138 kts 126°
2026-04-29 03:56 -22.78558 -43.30455 1026 ft 137 kts 125°
2026-04-29 03:57 -22.79102 -43.29620 818 ft 138 kts 124°
2026-04-29 03:57 -22.80018 -43.28178 491 ft 137 kts 126°
2026-04-29 03:57 -22.80566 -43.27375 287 ft 134 kts 126°
2026-04-29 03:58 -22.81097 -43.26591 108 ft 127 kts 126°
2026-04-29 03:58 -22.81594 -43.25843 23 ft 96 kts 126°
2026-04-29 03:58 -22.81809 -43.25521 22 ft 11 kts 124°
2026-04-29 03:58 -22.81822 -43.25501 22 ft 8 kts 125°
2026-04-29 03:59 -22.81866 -43.25435 21 ft 12 kts 126°
2026-04-29 03:59 -22.81920 -43.25352 21 ft 14 kts 126°
2026-04-29 03:59 -22.81983 -43.25259 21 ft 14 kts 126°
2026-04-29 03:59 -22.82023 -43.25194 21 ft 10 kts 119°
2026-04-29 04:00 -22.82037 -43.25111 22 ft 12 kts 89°
2026-04-29 04:00 -22.82037 -43.25040 23 ft 8 kts 90°
2026-04-29 04:00 -22.82037 -43.24986 24 ft 5 kts 90°
2026-04-29 04:00 -22.82038 -43.24938 25 ft 7 kts 93°
2026-04-29 04:01 -22.82062 -43.24874 25 ft 10 kts 122°
2026-04-29 04:01 -22.82100 -43.24815 25 ft 9 kts 121°
2026-04-29 04:01 -22.82089 -43.24750 26 ft 10 kts 47°
2026-04-29 04:01 -22.82032 -43.24703 27 ft 10 kts 35°
2026-04-29 04:02 -22.81980 -43.24666 28 ft 9 kts 30°
2026-04-29 04:02 -22.81950 -43.24640 29 ft 5 kts 39°
2026-04-29 04:02 -22.81910 -43.24636 30 ft 6 kts
2026-04-29 04:02 -22.81900 -43.24635 30 ft 1 kts
2026-04-29 04:03 -22.81883 -43.24632 31 ft 3 kts 22°
2026-04-29 04:03 -22.81853 -43.24611 31 ft 7 kts 35°
2026-04-29 04:03 -22.81811 -43.24582 32 ft 6 kts 23°
2026-04-29 04:03 -22.81767 -43.24588 33 ft 6 kts 327°
2026-04-29 04:04 -22.81733 -43.24630 35 ft 8 kts 305°
2026-04-29 04:04 -22.81696 -43.24690 36 ft 10 kts 307°
2026-04-29 04:04 -22.81653 -43.24756 36 ft 12 kts 303°
2026-04-29 04:04 -22.81601 -43.24840 36 ft 11 kts 306°
2026-04-29 04:05 -22.81567 -43.24892 37 ft 6 kts 305°
2026-04-29 04:05 -22.81537 -43.24913 37 ft 6 kts 313°
2026-04-29 04:05 -22.81508 -43.24967 37 ft 10 kts 293°
2026-04-29 04:05 -22.81474 -43.25038 37 ft 8 kts 314°
2026-04-29 04:06 -22.81437 -43.25068 37 ft 8 kts 314°
2026-04-29 04:06 -22.81397 -43.25126 37 ft 9 kts 309°
2026-04-29 04:06 -22.81359 -43.25151 37 ft 5 kts 345°
2026-04-29 04:06 -22.81320 -43.25154 37 ft 2 kts
2026-04-29 04:07 -22.81296 -43.25151 37 ft 3 kts
2026-04-29 04:07 -22.81274 -43.25148 38 ft 0 kts
2026-04-29 04:07 -22.81268 -43.25147 37 ft 0 kts
2026-04-29 04:07 -22.81265 -43.25146 37 ft 0 kts
2026-04-29 04:08 -22.81264 -43.25146 37 ft 0 kts
2026-04-29 04:08 -22.81252 -43.25144 38 ft 3 kts
2026-04-29 04:08 -22.81240 -43.25143 38 ft 0 kts
2026-04-29 04:13 -22.81264 -43.25147 38 ft 2 kts
2026-04-29 04:13 -22.81267 -43.25149 37 ft 0 kts